Back to catalog

CTC-1C

AliveCommunicationsSSO
NORAD 66750·PAYLOAD·🇺🇸 United States
This satellite name has not been confirmed by official sources yet.

Launched Nov 28, 2025 from Vandenberg Space Force Base

Loading…

Next Passes (next 24 hours)

TLE

FreshSource: Space-Track

Epoch: Sep 14, 2026, 03:43 UTC

1 66750U 25276CN  26257.15509489  .00003114  00000-0  14590-3 0  9990
2 66750  97.4155 329.4400 0002184  36.7976 323.3409 15.20443769 43947

Track CTC-1C in real time with AllMySat

Download on the App Store